timestamp,surface_pressure_avg,surface_temp_avg,battery_voltage,lat,long
2023-01-26 00:09:00+00:00,279.7931,2.68,12.49,47.84626,-54.09684
2023-01-26 00:19:00+00:00,275.8397,2.69,12.49,47.84626,-54.09684
2023-01-26 00:29:00+00:00,283.7313,2.7,12.49,47.84626,-54.09684
2023-01-26 00:39:00+00:00,294.6913,2.7,12.49,47.84626,-54.09684
2023-01-26 00:49:00+00:00,296.8264,2.7,12.49,47.84626,-54.09684
2023-01-26 00:59:00+00:00,297.798,2.7,12.49,47.84626,-54.09684
2023-01-26 01:09:00+00:00,310.4564,2.7,12.49,47.84626,-54.09684
2023-01-26 01:19:00+00:00,320.0914,2.7,12.41,47.84626,-54.09684
2023-01-26 01:29:00+00:00,320.498,2.7,12.41,47.84626,-54.09684
2023-01-26 01:39:00+00:00,326.4363,2.7,12.41,47.84626,-54.09684
2023-01-26 01:49:00+00:00,334.423,2.7,12.41,47.84626,-54.09684
2023-01-26 01:59:00+00:00,334.6263,2.7,12.41,47.84626,-54.09684
2023-01-26 02:09:00+00:00,338.2063,2.7,12.41,47.84626,-54.09684
2023-01-26 02:19:00+00:00,345.0263,2.7,12.41,47.84626,-54.09684
2023-01-26 02:29:00+00:00,348.7629,2.7,12.41,47.84626,-54.09684
2023-01-26 02:39:00+00:00,347.6813,2.7,12.41,47.84626,-54.09684
2023-01-26 02:49:00+00:00,352.343,2.7,12.41,47.84626,-54.09684
2023-01-26 02:59:00+00:00,356.7897,2.7,12.41,47.84626,-54.09684
2023-01-26 03:09:00+00:00,354.4563,2.71,12.41,47.84626,-54.09684
2023-01-26 03:19:00+00:00,349.6395,2.7,12.41,47.84626,-54.09684
2023-01-26 03:29:00+00:00,352.6879,2.7,12.41,47.84626,-54.09684
2023-01-26 03:39:00+00:00,352.6196,2.7,12.41,47.84626,-54.09684
2023-01-26 03:49:00+00:00,348.2095,2.7,12.41,47.84626,-54.09684
2023-01-26 03:59:00+00:00,346.4747,2.7,12.41,47.84626,-54.09684
2023-01-26 04:09:00+00:00,349.00300000000016,2.72,12.41,47.84626,-54.09684
2023-01-26 04:19:01+00:00,344.8162,2.7,12.41,47.84626,-54.09684
2023-01-26 04:29:01+00:00,335.7112,2.7,12.41,47.84626,-54.09684
2023-01-26 04:39:01+00:00,337.4846,2.7,12.41,47.84626,-54.09684
2023-01-26 04:49:01+00:00,335.7580000000001,2.7,12.41,47.84626,-54.09684
2023-01-26 04:59:01+00:00,323.6314,2.7,12.41,47.84626,-54.09684
2023-01-26 05:09:01+00:00,316.8264,2.7,12.41,47.84626,-54.09684
2023-01-26 05:19:00+00:00,312.8113,2.7,12.33,47.84626,-54.09684
2023-01-26 05:29:00+00:00,300.3848,2.7,12.33,47.84626,-54.09684
2023-01-26 05:39:00+00:00,286.593,2.7,12.33,47.84626,-54.09684
2023-01-26 05:49:00+00:00,281.4464,2.7,12.33,47.84626,-54.09684
2023-01-26 05:59:00+00:00,276.1031,2.7,12.33,47.84626,-54.09684
2023-01-26 06:09:00+00:00,264.4814,2.7,12.33,47.84626,-54.09684
2023-01-26 06:19:01+00:00,257.8497,2.7,12.33,47.84626,-54.09684
2023-01-26 06:29:01+00:00,258.1247,2.7,12.33,47.84626,-54.09684
2023-01-26 06:39:01+00:00,245.2281,2.69,12.33,47.84626,-54.09684
2023-01-26 06:49:01+00:00,228.2448,2.68,12.33,47.84626,-54.09684
2023-01-26 06:59:01+00:00,223.5647,2.68,12.33,47.84626,-54.09684
2023-01-26 07:09:01+00:00,219.9848,2.68,12.33,47.84626,-54.09684
2023-01-26 07:19:00+00:00,206.6615,2.6,12.33,47.84626,-54.09684
2023-01-26 07:29:00+00:00,195.4531,2.6,12.33,47.84626,-54.09684
2023-01-26 07:39:00+00:00,197.4482,2.6,12.33,47.84626,-54.09684
2023-01-26 07:49:00+00:00,194.9265,2.61,12.33,47.84626,-54.09684
2023-01-26 07:59:00+00:00,185.0531,2.6,12.33,47.84626,-54.09684
2023-01-26 08:09:00+00:00,180.4865,2.6,12.33,47.84626,-54.09684
2023-01-26 08:19:01+00:00,179.1248,2.6,12.25,47.84626,-54.09684
2023-01-26 08:29:01+00:00,174.6798,2.6,12.25,47.84626,-54.09684
2023-01-26 08:39:01+00:00,171.0782,2.6,12.25,47.84626,-54.09684
2023-01-26 08:49:01+00:00,169.4582,2.6,12.25,47.84626,-54.09684
2023-01-26 08:59:01+00:00,168.2498,2.6,12.25,47.84626,-54.09684
2023-01-26 09:09:01+00:00,170.0631,2.6,12.25,47.84626,-54.09684
2023-01-26 09:19:00+00:00,173.6765,2.6,12.25,47.84626,-54.09684
2023-01-26 09:29:00+00:00,174.3098,2.6,12.25,47.84626,-54.09684
2023-01-26 09:39:00+00:00,178.0432,2.6,12.25,47.84626,-54.09684
2023-01-26 09:49:00+00:00,183.3614,2.6,12.25,47.84626,-54.09684
2023-01-26 09:59:00+00:00,181.6381,2.6,12.25,47.84626,-54.09684
2023-01-26 10:09:00+00:00,177.1915,2.6,12.25,47.84626,-54.09684
2023-01-26 10:19:01+00:00,179.3015,2.6,12.25,47.84626,-54.09684
2023-01-26 10:29:01+00:00,183.4615,2.6,12.25,47.84626,-54.09684
2023-01-26 10:39:01+00:00,184.3565,2.6,12.25,47.84626,-54.09684
2023-01-26 10:49:01+00:00,190.1548,2.6,12.25,47.84626,-54.09684
2023-01-26 10:59:01+00:00,200.6864,2.6,12.25,47.84626,-54.09684
2023-01-26 11:09:01+00:00,202.9181,2.64,12.25,47.84626,-54.09684
2023-01-26 11:19:00+00:00,204.8798,2.65,12.17,47.84626,-54.09684
2023-01-26 11:29:00+00:00,214.3565,2.66,12.17,47.84626,-54.09684
2023-01-26 11:39:00+00:00,223.2298,2.67,12.17,47.84626,-54.09684
2023-01-26 11:49:00+00:00,227.6631,2.68,12.17,47.84626,-54.09684
2023-01-26 11:59:00+00:00,231.9131,2.67,12.17,47.84626,-54.09684
2023-01-26 12:09:00+00:00,242.9314,2.68,12.17,47.84626,-54.09684
2023-01-26 12:19:01+00:00,251.6097,2.69,12.25,47.84626,-54.09684
2023-01-26 12:29:01+00:00,266.4347,2.7,12.25,47.84626,-54.09684
2023-01-26 12:39:01+00:00,273.4364,2.7,12.25,47.84626,-54.09684
2023-01-26 12:49:01+00:00,276.6131,2.7,12.25,47.84626,-54.09684
2023-01-26 12:59:01+00:00,284.1913,2.7,12.25,47.84626,-54.09684
2023-01-26 13:09:01+00:00,297.4913,2.7,12.25,47.84626,-54.09684
2023-01-26 13:19:01+00:00,301.418,2.7,12.57,47.84626,-54.09684
2023-01-26 13:29:01+00:00,302.1447,2.7,12.57,47.84626,-54.09684
2023-01-26 13:39:01+00:00,309.978,2.7,12.57,47.84626,-54.09684
2023-01-26 13:49:01+00:00,324.1113,2.7,12.57,47.84626,-54.09684
2023-01-26 13:59:01+00:00,328.653,2.74,12.57,47.84626,-54.09684
2023-01-26 14:09:01+00:00,332.403,2.71,12.57,47.84626,-54.09684
2023-01-26 14:19:00+00:00,339.7812,2.71,13.05,47.84626,-54.09684
2023-01-26 14:29:00+00:00,344.5013,2.73,13.05,47.84626,-54.09684
2023-01-26 14:39:00+00:00,344.4113,2.72,13.05,47.84626,-54.09684
2023-01-26 14:49:00+00:00,349.5512,2.74,13.05,47.84626,-54.09684
2023-01-26 14:59:00+00:00,352.2896,2.77,13.05,47.84626,-54.09684
2023-01-26 15:09:00+00:00,347.718,2.7,13.05,47.84626,-54.09684
2023-01-26 15:19:01+00:00,346.6995,2.74,12.65,47.84626,-54.09684
2023-01-26 15:29:01+00:00,353.86800000000005,2.76,12.65,47.84626,-54.09684
2023-01-26 15:39:01+00:00,354.2797,2.75,12.65,47.84626,-54.09684
2023-01-26 15:49:01+00:00,352.5079,2.73,12.65,47.84626,-54.09684
2023-01-26 15:59:01+00:00,354.833,2.74,12.65,47.84626,-54.09684
2023-01-26 16:09:01+00:00,348.93300000000005,2.75,12.65,47.84626,-54.09684
2023-01-26 16:19:00+00:00,341.5164,2.74,12.49,47.84626,-54.09684
2023-01-26 16:29:00+00:00,341.8079,2.79,12.49,47.84626,-54.09684
2023-01-26 16:39:00+00:00,350.3347,2.8,12.49,47.84626,-54.09684
2023-01-26 16:49:00+00:00,343.0629,2.79,12.49,47.84626,-54.09684
2023-01-26 16:59:00+00:00,331.9631,2.79,12.49,47.84626,-54.09684
2023-01-26 17:09:00+00:00,333.9113,2.79,12.49,47.84626,-54.09684
2023-01-26 17:19:01+00:00,337.223,2.8,12.41,47.84626,-54.09684
2023-01-26 17:29:01+00:00,328.108,2.8,12.41,47.84626,-54.09684
2023-01-26 17:39:01+00:00,316.2497,2.79,12.41,47.84626,-54.09684
2023-01-26 17:49:01+00:00,305.5863,2.79,12.41,47.84626,-54.09684
2023-01-26 17:59:01+00:00,291.868,2.79,12.41,47.84626,-54.09684
2023-01-26 18:09:01+00:00,274.2697,2.74,12.41,47.84626,-54.09684
2023-01-26 18:19:01+00:00,271.3663,2.7,12.33,47.84626,-54.09684
2023-01-26 18:29:01+00:00,273.6747,2.75,12.33,47.84626,-54.09684
2023-01-26 18:39:01+00:00,254.4531,2.7,12.33,47.84626,-54.09684
2023-01-26 18:49:01+00:00,241.5448,2.7,12.33,47.84626,-54.09684
2023-01-26 18:59:01+00:00,238.8031,2.7,12.33,47.84626,-54.09684
2023-01-26 19:09:01+00:00,229.0664,2.76,12.33,47.84626,-54.09684
2023-01-26 19:19:00+00:00,213.4415,2.75,12.25,47.84626,-54.09684
2023-01-26 19:29:00+00:00,204.4881,2.76,12.25,47.84626,-54.09684
2023-01-26 19:39:00+00:00,198.4015,2.77,12.25,47.84626,-54.09684
2023-01-26 19:49:00+00:00,190.1381,2.7,12.25,47.84626,-54.09684
2023-01-26 19:59:00+00:00,180.0848,2.6,12.25,47.84626,-54.09684
2023-01-26 20:09:00+00:00,176.4698,2.5,12.25,47.84626,-54.09684
2023-01-26 20:19:00+00:00,176.9348,2.5,12.25,47.84626,-54.09684
2023-01-26 20:29:00+00:00,170.0465,2.5,12.25,47.84626,-54.09684
2023-01-26 20:39:00+00:00,157.5065,2.5,12.25,47.84626,-54.09684
2023-01-26 20:49:00+00:00,164.1398,2.55,12.25,47.84626,-54.09684
2023-01-26 20:59:00+00:00,184.4232,2.6,12.25,47.84626,-54.09684
2023-01-26 21:09:00+00:00,187.9698,2.6,12.25,47.84626,-54.09684
2023-01-26 21:19:01+00:00,180.4098,2.52,12.25,47.84626,-54.09684
2023-01-26 21:29:01+00:00,193.4132,2.5,12.25,47.84626,-54.09684
2023-01-26 21:39:01+00:00,212.7164,2.6,12.25,47.84626,-54.09684
2023-01-26 21:49:01+00:00,210.7081,2.65,12.25,47.84626,-54.09684
2023-01-26 21:59:01+00:00,198.1781,2.6,12.25,47.84626,-54.09684
2023-01-26 22:09:01+00:00,199.6031,2.5,12.25,47.84626,-54.09684
2023-01-26 22:19:00+00:00,217.3398,2.47,12.25,47.84626,-54.09684
2023-01-26 22:29:00+00:00,217.3548,2.6,12.25,47.84626,-54.09684
2023-01-26 22:39:00+00:00,211.4231,2.6,12.25,47.84626,-54.09684
2023-01-26 22:49:00+00:00,222.5614,2.5,12.25,47.84626,-54.09684
2023-01-26 22:59:00+00:00,242.5731,2.5,12.25,47.84626,-54.09684
2023-01-26 23:09:00+00:00,257.1914,2.58,12.25,47.84626,-54.09684
2023-01-26 23:19:00+00:00,255.848,2.6,12.25,47.84626,-54.09684
2023-01-26 23:29:00+00:00,238.7964,2.59,12.25,47.84626,-54.09684
2023-01-26 23:39:00+00:00,234.7347,2.5,12.25,47.84626,-54.09684
2023-01-26 23:49:00+00:00,255.6798,2.5,12.25,47.84626,-54.09684
2023-01-26 23:59:00+00:00,265.4348,2.5,12.25,47.84626,-54.09684
